Regional Weather Roundup
Issued by NWS

Home | Current Version | Previous Version | Graphics & Text | Print | Product List | Glossary On
Versions: 1 2 3 4 5 6 7 8 9 10 11 12 13 14 15 16 17 18 19 20 21 22 23 24 25 26 27
000
ASUS45 KTFX 181310
RWRMT
MONTANA REGIONAL WEATHER ROUNDUP
NATIONAL WEATHER SERVICE GREAT FALLS MT
700 AM MDT MON SEP 18 2017

NOTE: "FAIR" INDICATES FEW OR NO CLOUDS BELOW 12000 FEET WITH NO
SIGNIFICANT WEATHER AND/OR OBSTRUCTIONS TO VISIBILITY.

MTZ001>007-043-181400-
WEST OF THE DIVIDE

CITY           SKY/WX    TMP DP  RH WIND       PRES   REMARKS
KALISPELL      LGT RAIN  49  47  93 S8        29.74F
MISSOULA       CLOUDY    49  42  77 CALM      29.75F
BUTTE          CLOUDY    38  35  89 SE5       29.83F
MULLAN PASS    LGT RAIN  40  39  97 MISG      29.75  VSB 1/2
ANACONDA         N/A     46  32  57 SE9       29.79F
EUREKA           N/A     54  41  62 MISG      29.70F
HAMILTON         N/A     46  39  76 CALM      29.75F
LIBBY            N/A     48  46  93 CALM      29.70S
PLAINS           N/A     51  45  80 CALM      29.76
RONAN            N/A     49  46  89 N3        29.81F
$$

MTZ008-052>055-181400-
SOUTHWEST MONTANA

CITY           SKY/WX    TMP DP  RH WIND       PRES   REMARKS
BOZEMAN        CLOUDY    46  39  76 S6        29.82F
DILLON         CLOUDY    46  33  60 SE7       29.82F
W YELLOWSTONE  CLOUDY    30  30 100 CALM      29.99S
ENNIS          CLOUDY    50  32  50 SW10      29.89F
THREE FORKS      N/A     40  38  93 CALM      29.82F
TWIN BRIDGES     N/A     44  34  68 CALM      29.83F
$$

MTZ009-010-012-014-046-048-049-054-181400-
EAST SLOPES AND CENTRAL MONTANA

CITY           SKY/WX    TMP DP  RH WIND       PRES   REMARKS
CUT BANK       MOCLDY    50  38  63 SW10      29.70F
GREAT FALLS    CLOUDY    53  34  48 SW9       29.73F
MALMSTROM AFB  CLOUDY    52  37  56 S9        29.73F
HELENA         PTCLDY    46  39  76 CALM      29.76F
BOWMANS CRNR     N/A     47  34  60 S3        29.72F
CHOTEAU          N/A     52  36  54 S8        29.73F
FAIRFIELD        N/A     48  35  60 S9        29.71F
POWER            N/A     49  35  60 SW8       29.71F
RAYNESFORD     MOCLDY    53  34  48 SE3       29.75F
ULM            MOCLDY    51  37  59 S7        29.73F
$$

MTZ011-013-016-021-045-047-050-051-181400-
NORTH CENTRAL MONTANA

CITY           SKY/WX    TMP DP  RH WIND       PRES   REMARKS
HAVRE          MOCLDY    42  39  89 CALM      29.70R
LEWISTOWN      CLOUDY    54  34  46 SW10      29.78F
N BAR RANCH    CLOUDY    54  30  40 SW6       29.83F
CHINOOK          N/A     43  37  81 E6        29.70S
DENTON           N/A     51  38  60 S8        29.72F
GEYSER         CLOUDY    50  38  62 SE3       29.76S
GRASS RANGE    MOCLDY    58  33  39 W10       29.74F
JUDITH GAP     CLOUDY    47  33  59 S9G20     29.81F
WINIFRED       CLOUDY    58  33  38 SW13      29.74S
$$

MTZ017>020-022>027-061-062-181400-
NORTHEAST MONTANA

CITY           SKY/WX    TMP DP  RH WIND       PRES   REMARKS
GLASGOW        CLEAR     43  40  89 MISG      29.74F
JORDAN           N/A     37  34  89 CALM      29.77F
SIDNEY         CLEAR     37  36  96 CALM      29.83S
WOLF POINT     CLEAR     37  35  92 NE3       29.79R
MALTA          PTCLDY    37  36  93 NE3       29.73F
PLENTYWOOD       N/A     43  39  87 CALM      29.79F
POPLAR           N/A     37  36  93 CALM      29.79S
SCOBEY           N/A     39  33  79 CALM      29.77
$$

MTZ028>42-056>058-181400-
SOUTHCENTRAL AND SOUTHEAST MONTANA

CITY           SKY/WX    TMP DP  RH WIND       PRES   REMARKS
BAKER          CLEAR     39  36  89 SE8       29.87S
BILLINGS       MOCLDY    51  36  56 SW17      29.81S
LIVINGSTON     CLOUDY    55  30  38 W16       29.81F
MILES CITY     CLEAR     44  39  82 SE12      29.82S
BIG TIMBER     PTCLDY    41  34  75 W7        29.85F
EKALAKA          N/A     46  40  79 SE5       29.87
HARLOWTON      MOCLDY    39  35  86 MISG      29.81F
LAUREL           N/A     48  36  61 SW12      29.82F
$$

REGIONAL REPORTS...DAKOTAS

CITY           SKY/WX    TMP DP  RH WIND       PRES   REMARKS
WILLISTON      CLEAR     39  37  92 S3        29.83F
MINOT          CLEAR     43  41  93 CALM      29.85S
DICKINSON      CLEAR     39  39 100 S5        29.85S
BEACH            N/A     39  39 100 SE5       29.88S
CROSBY           N/A     43  43 100 S8        29.83S
TIOGA            N/A     37  37 100 SE7       29.86S
BISMARCK       CLEAR     44  44 100 CALM      29.87S
GRAND FORKS    PTCLDY    47  46  97 SE5       29.96R
FARGO          CLEAR     52  47  83 SE8       29.95F
BUFFALO SD       N/A     47  43  86 W3        29.83S
RAPID CITY     CLEAR     41  36  81 NW6       29.91R
$$

REGIONAL REPORTS...WYOMING/IDAHO/WASHINGTON

CITY           SKY/WX    TMP DP  RH WIND       PRES   REMARKS
GILLETTE       CLEAR     43  39  86 SE8       29.92S
SHERIDAN       CLEAR     37  32  82 NW3       29.87F
BUFFALO WY     CLEAR     43  28  55 CALM      29.92F
CODY           CLEAR     44  32  62 S9        29.92F
YELLOWSTONE LA   N/A     28  27  96 NW3       30.05S
IDAHO FALLS    MOCLDY    43  41  93 CALM      29.92S
SALMON         CLOUDY    46  43  89 NE3       29.82R
BOISE          CLOUDY    59  51  75 E8        29.81F
SPOKANE        LGT RAIN  52  52 100 SW8       29.69S FOG
$$

REGIONAL REPORTS...ALBERTA

CITY           SKY/WX    TMP DP  RH WIND       PRES   REMARKS
EDMONTON       CLEAR     41  37  87 E8        29.57S
CALGARY        CLOUDY    48  32  53 CALM      29.56S
LETHBRIDGE     MOCLDY    48  34  57 SW7       29.63F
MEDICINE HAT   CLOUDY    45  34  65 S7        29.64S
$$

REGIONAL REPORTS...SASKATCHEWAN

CITY           SKY/WX    TMP DP  RH WIND       PRES   REMARKS
SWIFT CURRENT  CLEAR     43  34  70 S14       29.68S
REGINA         PTCLDY    36  34  93 SE12      29.77F WCI  27
SASKATOON      CLEAR     43  37  81 E12G17    29.75F
$$




USA.gov is the U.S. government's official web portal to all federal, state and local government web resources and services.